User: anonymous   Login
Location: Newark
(49.1000°N, 0.4667°W)
Time: 06:24:03
(UTC+00:00)
Language:

BEESAT 3 - Orbit

View from above orbital plane
View from above orbital plane
View from above satellite
View from above satellite

Ground track
Ground track

The orbit data is extracted from the following two-line orbital elements,

1 39134U 13015E   21134.55152877  .00002306  00000-0  10794-3 0  9996
2 39134  64.8636 282.7036 0005525 297.0267  63.0297 15.22463972446050
Epoch (UTC): 14 May 2021 13:14:12
Eccentricity: 0.0005525
inclination: 64.8636°
perigee height: 494 km
apogee height: 502 km
right ascension of ascending node: 282.7036°
argument of perigee: 297.0267°
revolutions per day: 15.22463972
mean anomaly at epoch: 63.0297°
orbit number at epoch: 44605

The dashed part of the orbit path shows where the satellite is in the earth's shadow,  

DLR